SCP
0 0 0 0 0 0 0 0 0 0 0 -0 0 0 0 0 0 0 0 0 0 -0 -0 0 0 0 0 0 0 0 0 0 0 -0 -0 0 0 0 -0 0 0 -0 -0 -0
0 0 0 0 0 0 0 0 0 0 0 0 0 0 0 0 0 0 0 0 0 0 0 0 0 0 0 0 0 0 0 0 0 0 -0 -0 0 0 -0 -0 -0 0 -0 0
0 0 0 0 0 0 0 0 0 0 0 0 0 0 0 0 0 0 0 0 0 0 0 0 0 0 0 0 0 -0 0 0 0 0 0 -0 -0 -0 -0 -0 -0 -0 -0 0
0 0 0 0 0 0 0 0 0 0 0 0 0 0 0 0 0 0 0 0 0 -0 0 0 0 0 -0 0 -0 0 0 0 0 0 -0 -0 -0 0 -0 -0 -0 0 0 -0
0 0 0 0 0 -0 0 0 0 0 0 0 0 0 0 0 0 0 0 0 -0 -0 0 0 0 0 -0 0 0 0 0 0 0 -0 -0 -0 -0 -0 0 0 0 -0 0 0
0 0 0 0 0 0 0 0 0 0 0 0 0 0 0 0 0 0 0 0 -0 -0 -0 -0 -0 0 0 0 0 0 0 0 0 0 0 0 -0 -0 -0 -0 -0 0 0 0
0 0 0 0 0 0 0 0 0 0 0 0 0 0 0 0 0 0 0 0 -0 -0 0 -0 0 0 0 0 0 0 0 0 0 0 -0 -0 -0 -0 0 -0 -0 -0 0 -0
0 0 0 0 0 0 0 0 0 0 0 0 0 0 0 0 0 0 0 0 -0 -0 -0 0 0 0 0 0 0 0 0 0 0 0 0 0 -0 -0 -0 -0 -0 -0 0 0
0 0 0 0 0 0 0 0 0 0 0 0 0 0 0 0 0 0 0 0 0 -0 -0 0 0 0 0 0 0 0 0 -0 0 0 -0 0 -0 -0 -0 -0 0 -0 0 0
0 0 0 0 0 0 0 0 0 0 0 0 0 0 0 0 0 0 0 -0 0 0 -0 0 -0 0 0 0 0 -0 -0 0 -0 -0 0 -0 -0 -0 -0 -0 0 -0 0 0
0 0 0 0 0 0 0 0 0 0 0 0 0 0 0 0 0 0 0 0 0 -0 -0 0 0 0 0 0 0 0 0 0 0 -0 -0 0 -0 -0 -0 -0 -0 0 0 0
0 0 0 0 0 0 0 0 0 0 0 0 -0 -0 -0 -0 -0 0 0 0 0 -0 -0 0 0 0 0 0 0 0 0 0 -0 0 0 0 0 -0 0 -0 0 0 0 0
0 0 0 0 0 0 0 0 0 0 0 0 0 0 0 0 0 0 0 0 0 -0 0 0 0 0 0 0 0 0 -0 0 0 -0 -0 -0 -0 -0 -0 0 0 0 0 0
0 0 0 0 0 0 0 0 0 0 0 0 0 0 0 0 0 0 0 0 0 0 -0 0 0 0 0 0 0 0 0 0 0 0 0 -0 0 -0 0 0 0 0 0 0
0 0 0 0 0 0 0 0 0 0 0 0 0 -0 0 0 0 0 0 0 0 0 -0 0 0 0 0 0 0 0 0 0 0 -0 0 0 0 0 0 0 0 0 0 0
0 0 0 0 0 0 0 0 0 0 0 0 0 0 0 0 0 0 0 0 0 0 -0 -0 0 0 0 0 0 0 -0 -0 -0 0 -0 0 0 0 0 0 0 0 0 0
0 0 0 0 0 0 0 0 0 0 0 0 0 0 0 0 0 0 0 0 0 0 -0 -0 -0 0 0 0 0 -0 -0 -0 0 0 0 0 0 0 0 0 0 0 0 0
0 0 0 0 0 0 0 0 0 0 0 0 0 0 0 0 0 0 0 0 0 0 -0 -0 -0 -0 0 0 -0 -0 -0 -0 -0 0 0 0 0 0 0 0 0 0 0 0
0 0 0 0 0 0 0 0 0 0 0 0 0 0 0 0 0 0 0 0 0 0 -0 -0 -0 0 0 -0 0 -0 -0 0 0 -0 0 0 0 0 0 0 0 0 -0 -0
0 0 0 0 0 0 0 0 0 0 0 0 0 -0 0 -0 0 0 0 0 0 -0 -0 -0 -0 0 -0 0 0 0 -0 -0 0 -0 0 0 0 0 0 0 0 0 0 -0
0 0 0 0 0 0 0 0 0 0 0 0 0 -0 0 0 0 0 0 0 0 -0 -0 -0 -0 -0 0 0 0 -0 -0 0 -0 -0 0 0 0 0 0 0 0 0 0 0
0 0 0 0 0 0 0 0 0 0 0 0 0 0 0 0 0 0 0 0 0 -0 -0 -0 -0 -0 0 0 -0 -0 -0 -0 0 0 0 0 0 0 0 0 0 0 0 0
0 0 0 0 0 0 0 0 0 0 0 0 0 0 0 0 0 0 0 0 0 -0 -0 -0 -0 0 0 -0 0 -0 -0 -0 0 -0 0 0 0 0 0 0 0 0 0 0
0 0 0 0 0 0 0 0 0 0 0 0 0 -0 0 0 0 0 0 0 0 0 -0 -0 -0 -0 0 0 0 0 -0 0 -0 0 0 0 0 0 0 0 0 0 0 0
0 0 0 0 0 0 0 0 0 0 0 0 0 -0 -0 0 0 0 0 0 0 0 -0 -0 0 -0 0 0 0 0 0 0 0 0 0 0 0 0 0 0 0 0 0 0
0 0 0 0 0 0 0 0 0 0 0 -0 -0 -0 0 0 0 0 0 0 0 0 0 -0 0 -0 0 0 0 0 0 -0 0 -0 0 0 0 0 0 0 0 0 0 0
0 0 0 0 0 0 0 -0 -0 0 -0 -0 -0 0 0 0 0 0 0 0 0 0 0 -0 -0 0 0 0 0 0 0 0 0 0 0 0 0 0 0 0 0 0 0 0
Wind_Speed_500mb
76 78 77 73 76 79 67 21 10 23 33 20 15 16 16 21 20 27 20 17 26 25 29 28 29 22 14 18 10 14 11 10 24 46 46 41 39 33 31 19 24 25 29 12
73 75 74 68 67 71 63 29 20 12 29 11 16 17 21 12 23 24 17 21 27 32 28 14 19 39 33 39 6 7 2 9 14 20 18 30 24 27 27 37 35 37 16 11
70 72 72 65 62 59 34 24 11 19 18 8 20 24 19 26 21 21 17 28 35 24 21 27 23 49 16 19 41 46 21 11 27 28 40 4 9 21 19 29 21 38 33 10
68 68 69 61 57 51 30 19 12 7 13 23 26 25 25 31 29 16 37 18 28 36 24 38 28 23 44 47 41 3 4 10 27 39 48 46 42 38 37 33 40 39 31 9
69 69 66 56 50 41 15 21 15 22 39 22 25 11 22 28 35 35 29 34 42 40 34 32 42 43 43 10 6 3 4 9 29 41 40 39 38 39 38 35 32 32 41 27
67 66 65 61 43 38 16 21 14 20 25 21 18 16 26 35 36 21 30 41 43 39 45 70 73 65 52 26 10 3 6 7 12 20 13 1 12 31 35 35 36 28 31 5
64 63 59 60 43 28 17 22 18 18 18 22 23 31 32 34 32 33 44 37 28 48 71 70 52 44 32 18 22 20 5 4 6 14 22 8 17 36 8 18 18 7 22 15
60 59 53 56 50 23 16 20 18 18 16 34 27 35 34 36 34 29 37 41 56 52 48 20 15 4 6 9 4 16 20 5 9 7 9 3 28 32 20 19 12 28 18 5
59 58 50 51 45 27 20 16 14 17 19 7 26 33 33 24 23 24 37 44 39 40 16 11 10 7 14 6 18 6 26 19 5 8 7 12 16 39 42 24 8 17 7 7
61 58 45 46 37 27 23 13 29 14 26 26 24 22 22 21 20 15 43 58 19 32 14 12 11 9 18 13 14 16 16 12 12 17 6 10 31 50 30 8 13 39 18 20
63 53 45 38 33 26 22 11 22 17 30 57 30 25 30 30 21 10 35 22 10 7 14 9 10 8 11 12 6 9 9 13 10 12 11 5 59 30 15 24 53 14 36 34
64 54 39 33 29 26 24 9 10 20 24 36 49 48 44 45 35 30 14 14 9 9 6 5 6 7 9 20 6 11 4 6 8 8 7 21 34 36 42 56 4 34 40 40
48 39 33 31 26 26 23 17 17 23 35 48 22 15 15 23 24 23 12 10 8 14 22 6 5 9 5 7 4 6 9 6 6 11 3 21 36 48 52 33 35 35 38 53
45 33 29 28 24 27 21 18 15 18 15 12 15 15 18 17 18 27 32 38 36 35 38 9 6 6 5 4 6 3 5 13 12 8 9 29 23 40 38 31 40 49 51 51
34 29 25 27 25 26 21 22 20 21 14 13 36 40 16 19 26 24 26 32 36 18 12 9 3 3 6 5 4 3 7 6 5 6 22 15 18 32 23 32 41 47 64 63
26 24 23 23 21 15 10 10 15 20 20 11 9 22 17 16 19 25 30 35 24 16 11 10 5 7 7 5 4 10 36 18 14 8 9 11 20 26 25 39 41 52 58 66
19 20 21 22 21 18 14 10 9 16 13 7 14 12 10 11 21 28 14 9 12 14 12 6 8 2 7 4 5 28 39 15 13 6 2 13 21 19 33 47 49 58 75 71
19 19 21 19 20 22 20 21 38 24 9 8 7 10 17 8 20 14 5 4 10 12 9 9 9 12 4 2 14 35 15 11 20 19 13 19 20 37 42 54 65 66 64 70
22 19 13 18 12 10 13 22 19 22 14 8 11 7 7 10 22 12 6 7 7 5 4 5 8 6 4 7 21 25 19 10 11 18 21 28 35 41 44 53 60 71 66 72
12 7 7 10 9 14 12 6 6 12 12 13 14 31 15 23 27 10 11 5 4 4 3 5 2 2 6 5 10 9 8 8 14 21 24 29 38 44 53 54 56 74 69 67
11 8 10 9 6 11 9 10 15 18 10 17 22 25 18 14 13 10 7 4 7 5 2 7 0 3 5 7 5 5 5 7 8 20 28 33 41 50 57 65 63 67 69 70
15 9 8 6 10 14 9 9 11 14 9 14 20 15 22 15 5 6 4 3 3 6 8 4 2 7 15 7 8 8 11 11 17 31 35 40 44 48 54 58 58 62 67 64
11 11 11 12 14 10 13 11 11 8 11 13 13 9 10 14 8 5 6 7 9 14 2 4 6 13 14 10 10 14 14 20 26 35 34 39 48 54 50 51 51 56 52 51
12 15 8 12 13 12 14 17 16 10 8 13 19 17 6 14 9 5 8 3 7 4 4 3 7 9 17 16 15 14 19 29 30 35 37 41 43 47 42 45 43 45 47 48
10 13 10 18 26 22 9 19 11 6 9 15 11 14 16 5 8 6 6 4 7 2 4 6 13 11 21 22 22 21 29 32 34 34 39 41 37 39 40 41 40 40 40 45
10 15 15 20 14 16 21 18 21 12 16 20 13 11 6 10 5 8 10 5 1 1 3 8 11 19 24 26 31 25 27 30 35 42 43 40 40 42 44 43 38 35 35 41
10 16 22 30 39 20 17 23 20 17 19 11 10 10 7 3 5 8 4 3 5 11 6 1 11 27 29 33 38 25 32 32 34 37 39 40 39 39 40 41 40 41 40 39
Wind_Direction_500mb
350 353 356 356 354 354 2 352 305 349 344 299 346 359 340 322 309 320 293 290 287 310 324 315 308 276 300 348 294 285 264 276 271 270 264 244 258 246 252 227 240 264 295 273
347 352 356 358 358 355 350 336 306 326 5 19 347 342 306 280 294 310 297 295 304 317 319 313 281 294 300 320 326 255 196 245 290 290 231 230 235 252 255 240 266 255 263 307
345 349 354 356 358 358 358 336 329 346 313 119 346 344 319 322 327 317 296 298 295 317 305 300 287 295 315 314 285 273 227 221 243 265 285 267 274 276 236 246 258 258 255 124
344 347 351 356 357 4 8 359 7 3 307 335 330 306 304 319 331 322 304 281 302 331 323 311 284 296 301 304 293 116 259 263 252 263 260 268 268 259 251 243 252 253 263 108
342 344 349 354 355 13 350 348 347 325 296 303 308 282 337 323 328 322 304 313 316 320 303 288 299 303 299 267 268 205 228 272 286 283 265 242 250 249 252 247 252 252 261 240
340 341 346 350 354 10 346 343 323 297 288 310 310 353 324 312 312 314 310 316 310 310 302 311 298 286 270 237 192 225 247 275 302 279 354 221 238 249 236 243 241 252 237 292
336 338 342 347 349 360 348 322 327 305 294 317 332 314 316 318 317 299 302 306 319 313 315 309 285 242 240 237 216 188 251 246 261 280 297 224 18 24 234 214 240 213 125 187
330 332 336 343 342 356 1 324 325 315 296 315 302 333 318 312 310 338 321 351 334 328 320 311 321 103 208 272 247 187 215 243 276 273 304 283 21 1 346 332 25 85 121 58
324 326 331 336 338 347 357 308 313 303 296 13 324 312 301 319 338 326 332 329 331 336 306 313 323 341 327 319 343 242 314 193 224 295 328 31 358 336 314 283 157 105 50 206
313 320 323 327 329 331 338 293 293 292 287 281 315 301 317 298 326 314 311 343 312 11 341 333 346 324 336 341 343 339 335 351 313 329 351 95 355 331 319 339 359 317 53 113
308 308 313 316 320 317 326 274 287 275 280 291 279 281 282 285 288 301 314 335 348 310 0 342 346 311 329 328 53 359 333 321 344 326 352 353 0 346 10 313 308 62 83 104
304 305 304 303 310 307 312 310 286 295 278 274 292 282 266 253 264 288 302 278 287 313 4 310 307 296 308 329 340 22 337 358 301 333 328 330 328 323 319 309 77 75 94 104
296 295 294 294 298 298 295 282 284 298 293 303 259 288 273 245 248 243 243 260 236 303 339 296 277 278 322 321 341 291 344 29 256 315 120 332 328 344 358 52 88 98 108 113
291 285 285 292 287 291 291 275 280 280 288 279 304 297 276 255 251 250 244 263 285 294 306 242 256 276 49 307 295 302 322 308 318 270 4 328 349 359 9 68 94 104 107 114
283 274 270 289 282 291 293 272 266 246 254 297 300 302 285 245 240 247 257 256 261 272 287 231 246 276 313 252 250 110 318 317 331 320 330 291 335 6 47 85 97 105 115 109
270 266 271 277 280 284 295 277 236 219 225 285 296 322 275 250 242 258 264 251 236 238 266 275 255 216 265 287 312 22 346 304 279 305 340 0 39 48 86 103 111 107 106 113
252 252 265 266 267 258 235 293 203 228 235 265 288 282 220 247 259 267 263 196 226 230 263 225 295 250 237 270 334 329 327 325 348 272 221 45 50 53 92 113 115 111 109 112
239 251 259 265 270 280 274 267 253 244 245 252 270 277 271 185 297 298 198 313 219 234 261 280 329 330 297 300 346 335 0 61 41 52 115 113 116 110 100 111 118 111 107 105
247 256 267 271 256 248 234 245 253 217 214 276 242 265 290 212 290 294 14 263 262 238 266 285 330 344 9 353 332 343 26 56 88 77 103 111 105 105 100 108 109 111 107 108
241 261 238 235 211 220 220 219 205 204 229 224 260 259 260 297 304 20 303 276 284 257 181 316 307 56 301 5 342 354 41 32 93 90 95 105 100 103 106 98 106 119 111 111
244 212 238 225 205 194 220 227 205 189 220 218 239 238 254 268 287 337 357 3 327 279 107 320 2 354 84 10 39 41 61 59 81 111 110 113 113 112 111 106 103 117 114 111
204 231 230 205 212 229 232 223 212 197 246 190 219 210 231 270 290 269 173 257 256 275 328 325 255 69 93 75 65 70 109 100 108 118 111 117 113 110 108 117 105 107 116 114
200 226 218 200 224 224 218 220 215 206 226 196 208 224 234 189 258 188 220 225 231 290 81 301 36 82 113 116 102 111 113 122 118 121 118 117 120 115 108 109 112 119 117 115
228 208 245 218 209 223 214 236 252 175 133 179 227 259 239 232 180 227 238 77 307 234 282 263 88 111 130 130 123 127 135 131 130 133 127 117 124 117 113 112 117 113 117 124
237 235 235 218 241 263 269 250 279 219 210 244 256 272 263 189 259 207 203 203 243 222 257 62 82 132 143 140 139 124 122 129 139 139 132 131 124 121 119 124 121 122 127 132
234 247 260 268 284 279 259 240 245 196 218 244 257 263 222 231 230 220 218 236 302 187 76 24 115 151 149 149 148 145 150 140 145 138 132 132 134 131 129 130 131 130 129 132
238 237 239 268 279 285 260 243 246 227 237 236 246 233 196 248 243 242 86 312 24 25 5 137 157 156 152 156 149 142 144 138 137 135 135 135 130 132 136 137 140 140 139 136
Wind_Speed_850mb
76 78 77 73 76 79 67 21 10 23 33 20 15 16 16 21 20 27 20 17 26 25 29 28 29 22 14 18 10 14 11 10 24 46 46 41 39 33 31 19 24 25 29 12
73 75 74 68 67 71 63 29 20 12 29 11 16 17 21 12 23 24 17 21 27 32 28 14 19 39 33 39 6 7 2 9 14 20 18 30 24 27 27 37 35 37 16 11
70 72 72 65 62 59 34 24 11 19 18 8 20 24 19 26 21 21 17 28 35 24 21 27 23 49 16 19 41 46 21 11 27 28 40 4 9 21 19 29 21 38 33 10
68 68 69 61 57 51 30 19 12 7 13 23 26 25 25 31 29 16 37 18 28 36 24 38 28 23 44 47 41 3 4 10 27 39 48 46 42 38 37 33 40 39 31 9
69 69 66 56 50 41 15 21 15 22 39 22 25 11 22 28 35 35 29 34 42 40 34 32 42 43 43 10 6 3 4 9 29 41 40 39 38 39 38 35 32 32 41 27
67 66 65 61 43 38 16 21 14 20 25 21 18 16 26 35 36 21 30 41 43 39 45 70 73 65 52 26 10 3 6 7 12 20 13 1 12 31 35 35 36 28 31 5
64 63 59 60 43 28 17 22 18 18 18 22 23 31 32 34 32 33 44 37 28 48 71 70 52 44 32 18 22 20 5 4 6 14 22 8 17 36 8 18 18 7 22 15
60 59 53 56 50 23 16 20 18 18 16 34 27 35 34 36 34 29 37 41 56 52 48 20 15 4 6 9 4 16 20 5 9 7 9 3 28 32 20 19 12 28 18 5
59 58 50 51 45 27 20 16 14 17 19 7 26 33 33 24 23 24 37 44 39 40 16 11 10 7 14 6 18 6 26 19 5 8 7 12 16 39 42 24 8 17 7 7
61 58 45 46 37 27 23 13 29 14 26 26 24 22 22 21 20 15 43 58 19 32 14 12 11 9 18 13 14 16 16 12 12 17 6 10 31 50 30 8 13 39 18 20
63 53 45 38 33 26 22 11 22 17 30 57 30 25 30 30 21 10 35 22 10 7 14 9 10 8 11 12 6 9 9 13 10 12 11 5 59 30 15 24 53 14 36 34
64 54 39 33 29 26 24 9 10 20 24 36 49 48 44 45 35 30 14 14 9 9 6 5 6 7 9 20 6 11 4 6 8 8 7 21 34 36 42 56 4 34 40 40
48 39 33 31 26 26 23 17 17 23 35 48 22 15 15 23 24 23 12 10 8 14 22 6 5 9 5 7 4 6 9 6 6 11 3 21 36 48 52 33 35 35 38 53
45 33 29 28 24 27 21 18 15 18 15 12 15 15 18 17 18 27 32 38 36 35 38 9 6 6 5 4 6 3 5 13 12 8 9 29 23 40 38 31 40 49 51 51
34 29 25 27 25 26 21 22 20 21 14 13 36 40 16 19 26 24 26 32 36 18 12 9 3 3 6 5 4 3 7 6 5 6 22 15 18 32 23 32 41 47 64 63
26 24 23 23 21 15 10 10 15 20 20 11 9 22 17 16 19 25 30 35 24 16 11 10 5 7 7 5 4 10 36 18 14 8 9 11 20 26 25 39 41 52 58 66
19 20 21 22 21 18 14 10 9 16 13 7 14 12 10 11 21 28 14 9 12 14 12 6 8 2 7 4 5 28 39 15 13 6 2 13 21 19 33 47 49 58 75 71
19 19 21 19 20 22 20 21 38 24 9 8 7 10 17 8 20 14 5 4 10 12 9 9 9 12 4 2 14 35 15 11 20 19 13 19 20 37 42 54 65 66 64 70
22 19 13 18 12 10 13 22 19 22 14 8 11 7 7 10 22 12 6 7 7 5 4 5 8 6 4 7 21 25 19 10 11 18 21 28 35 41 44 53 60 71 66 72
12 7 7 10 9 14 12 6 6 12 12 13 14 31 15 23 27 10 11 5 4 4 3 5 2 2 6 5 10 9 8 8 14 21 24 29 38 44 53 54 56 74 69 67
11 8 10 9 6 11 9 10 15 18 10 17 22 25 18 14 13 10 7 4 7 5 2 7 0 3 5 7 5 5 5 7 8 20 28 33 41 50 57 65 63 67 69 70
15 9 8 6 10 14 9 9 11 14 9 14 20 15 22 15 5 6 4 3 3 6 8 4 2 7 15 7 8 8 11 11 17 31 35 40 44 48 54 58 58 62 67 64
11 11 11 12 14 10 13 11 11 8 11 13 13 9 10 14 8 5 6 7 9 14 2 4 6 13 14 10 10 14 14 20 26 35 34 39 48 54 50 51 51 56 52 51
12 15 8 12 13 12 14 17 16 10 8 13 19 17 6 14 9 5 8 3 7 4 4 3 7 9 17 16 15 14 19 29 30 35 37 41 43 47 42 45 43 45 47 48
10 13 10 18 26 22 9 19 11 6 9 15 11 14 16 5 8 6 6 4 7 2 4 6 13 11 21 22 22 21 29 32 34 34 39 41 37 39 40 41 40 40 40 45
10 15 15 20 14 16 21 18 21 12 16 20 13 11 6 10 5 8 10 5 1 1 3 8 11 19 24 26 31 25 27 30 35 42 43 40 40 42 44 43 38 35 35 41
10 16 22 30 39 20 17 23 20 17 19 11 10 10 7 3 5 8 4 3 5 11 6 1 11 27 29 33 38 25 32 32 34 37 39 40 39 39 40 41 40 41 40 39
Wind_Direction_850mb
350 353 356 356 354 354 2 352 305 349 344 299 346 359 340 322 309 320 293 290 287 310 324 315 308 276 300 348 294 285 264 276 271 270 264 244 258 246 252 227 240 264 295 273
347 352 356 358 358 355 350 336 306 326 5 19 347 342 306 280 294 310 297 295 304 317 319 313 281 294 300 320 326 255 196 245 290 290 231 230 235 252 255 240 266 255 263 307
345 349 354 356 358 358 358 336 329 346 313 119 346 344 319 322 327 317 296 298 295 317 305 300 287 295 315 314 285 273 227 221 243 265 285 267 274 276 236 246 258 258 255 124
344 347 351 356 357 4 8 359 7 3 307 335 330 306 304 319 331 322 304 281 302 331 323 311 284 296 301 304 293 116 259 263 252 263 260 268 268 259 251 243 252 253 263 108
342 344 349 354 355 13 350 348 347 325 296 303 308 282 337 323 328 322 304 313 316 320 303 288 299 303 299 267 268 205 228 272 286 283 265 242 250 249 252 247 252 252 261 240
340 341 346 350 354 10 346 343 323 297 288 310 310 353 324 312 312 314 310 316 310 310 302 311 298 286 270 237 192 225 247 275 302 279 354 221 238 249 236 243 241 252 237 292
336 338 342 347 349 360 348 322 327 305 294 317 332 314 316 318 317 299 302 306 319 313 315 309 285 242 240 237 216 188 251 246 261 280 297 224 18 24 234 214 240 213 125 187
330 332 336 343 342 356 1 324 325 315 296 315 302 333 318 312 310 338 321 351 334 328 320 311 321 103 208 272 247 187 215 243 276 273 304 283 21 1 346 332 25 85 121 58
324 326 331 336 338 347 357 308 313 303 296 13 324 312 301 319 338 326 332 329 331 336 306 313 323 341 327 319 343 242 314 193 224 295 328 31 358 336 314 283 157 105 50 206
313 320 323 327 329 331 338 293 293 292 287 281 315 301 317 298 326 314 311 343 312 11 341 333 346 324 336 341 343 339 335 351 313 329 351 95 355 331 319 339 359 317 53 113
308 308 313 316 320 317 326 274 287 275 280 291 279 281 282 285 288 301 314 335 348 310 0 342 346 311 329 328 53 359 333 321 344 326 352 353 0 346 10 313 308 62 83 104
304 305 304 303 310 307 312 310 286 295 278 274 292 282 266 253 264 288 302 278 287 313 4 310 307 296 308 329 340 22 337 358 301 333 328 330 328 323 319 309 77 75 94 104
296 295 294 294 298 298 295 282 284 298 293 303 259 288 273 245 248 243 243 260 236 303 339 296 277 278 322 321 341 291 344 29 256 315 120 332 328 344 358 52 88 98 108 113
291 285 285 292 287 291 291 275 280 280 288 279 304 297 276 255 251 250 244 263 285 294 306 242 256 276 49 307 295 302 322 308 318 270 4 328 349 359 9 68 94 104 107 114
283 274 270 289 282 291 293 272 266 246 254 297 300 302 285 245 240 247 257 256 261 272 287 231 246 276 313 252 250 110 318 317 331 320 330 291 335 6 47 85 97 105 115 109
270 266 271 277 280 284 295 277 236 219 225 285 296 322 275 250 242 258 264 251 236 238 266 275 255 216 265 287 312 22 346 304 279 305 340 0 39 48 86 103 111 107 106 113
252 252 265 266 267 258 235 293 203 228 235 265 288 282 220 247 259 267 263 196 226 230 263 225 295 250 237 270 334 329 327 325 348 272 221 45 50 53 92 113 115 111 109 112
239 251 259 265 270 280 274 267 253 244 245 252 270 277 271 185 297 298 198 313 219 234 261 280 329 330 297 300 346 335 0 61 41 52 115 113 116 110 100 111 118 111 107 105
247 256 267 271 256 248 234 245 253 217 214 276 242 265 290 212 290 294 14 263 262 238 266 285 330 344 9 353 332 343 26 56 88 77 103 111 105 105 100 108 109 111 107 108
241 261 238 235 211 220 220 219 205 204 229 224 260 259 260 297 304 20 303 276 284 257 181 316 307 56 301 5 342 354 41 32 93 90 95 105 100 103 106 98 106 119 111 111
244 212 238 225 205 194 220 227 205 189 220 218 239 238 254 268 287 337 357 3 327 279 107 320 2 354 84 10 39 41 61 59 81 111 110 113 113 112 111 106 103 117 114 111
204 231 230 205 212 229 232 223 212 197 246 190 219 210 231 270 290 269 173 257 256 275 328 325 255 69 93 75 65 70 109 100 108 118 111 117 113 110 108 117 105 107 116 114
200 226 218 200 224 224 218 220 215 206 226 196 208 224 234 189 258 188 220 225 231 290 81 301 36 82 113 116 102 111 113 122 118 121 118 117 120 115 108 109 112 119 117 115
228 208 245 218 209 223 214 236 252 175 133 179 227 259 239 232 180 227 238 77 307 234 282 263 88 111 130 130 123 127 135 131 130 133 127 117 124 117 113 112 117 113 117 124
237 235 235 218 241 263 269 250 279 219 210 244 256 272 263 189 259 207 203 203 243 222 257 62 82 132 143 140 139 124 122 129 139 139 132 131 124 121 119 124 121 122 127 132
234 247 260 268 284 279 259 240 245 196 218 244 257 263 222 231 230 220 218 236 302 187 76 24 115 151 149 149 148 145 150 140 145 138 132 132 134 131 129 130 131 130 129 132
238 237 239 268 279 285 260 243 246 227 237 236 246 233 196 248 243 242 86 312 24 25 5 137 157 156 152 156 149 142 144 138 137 135 135 135 130 132 136 137 140 140 139 136